Hourly Weather Rudenka

Today, 20 April, Tuesday

Time Temperature Precipitation Wind Pressure Humidity
00:00 +5°C° 0 mm 4 mps 745 mmHg 92%
01:00 +5°C° 0 mm 4 mps 745 mmHg 93%
02:00 +4°C° 0 mm 4 mps 745 mmHg 93%
03:00 +5°C° 0 mm 4 mps 744 mmHg 94%
04:00 +5°C° 0 mm 4 mps 744 mmHg 94%
05:00 +5°C° 0 mm 4 mps 744 mmHg 94%
06:00 +5°C° 0.1 mm 4 mps 744 mmHg 94%
07:00 +6°C° 0.1 mm 4 mps 743 mmHg 93%
08:00 +6°C° 0.1 mm 4 mps 743 mmHg 93%
09:00 +6°C° 0.6 mm 4 mps 743 mmHg 92%
10:00 +7°C° 0.6 mm 4 mps 742 mmHg 91%
11:00 +7°C° 0.6 mm 4 mps 742 mmHg 90%
12:00 +7°C° 0.3 mm 4 mps 742 mmHg 90%
13:00 +7°C° 0.3 mm 4 mps 741 mmHg 91%
14:00 +7°C° 0.3 mm 4 mps 741 mmHg 91%
15:00 +7°C° 0.2 mm 4 mps 740 mmHg 91%
16:00 +7°C° 0.2 mm 4 mps 740 mmHg 90%
17:00 +7°C° 0.2 mm 4 mps 739 mmHg 90%
18:00 +6°C° 0.3 mm 4 mps 739 mmHg 90%
19:00 +6°C° 0.3 mm 5 mps 739 mmHg 91%
20:00 +5°C° 0.3 mm 5 mps 739 mmHg 92%
21:00 +5°C° 0.1 mm 4 mps 739 mmHg 93%
22:00 +4°C° 0.1 mm 4 mps 738 mmHg 94%
23:00 +4°C° 0.1 mm 4 mps 738 mmHg 95%

Tomorrow, 21 April, Wednesday

Time Temperature Precipitation Wind Pressure Humidity
00:00 +4°C° 0 mm 4 mps 738 mmHg 95%
01:00 +3°C° 0 mm 3 mps 738 mmHg 96%
02:00 +3°C° 0 mm 3 mps 738 mmHg 96%
03:00 +3°C° 0 mm 3 mps 738 mmHg 95%
04:00 +3°C° 0 mm 3 mps 739 mmHg 95%
05:00 +3°C° 0 mm 3 mps 739 mmHg 94%
06:00 +3°C° 0 mm 3 mps 739 mmHg 92%
07:00 +4°C° 0 mm 3 mps 740 mmHg 89%
08:00 +4°C° 0 mm 3 mps 740 mmHg 87%
09:00 +5°C° 0 mm 3 mps 740 mmHg 84%
10:00 +5°C° 0 mm 3 mps 741 mmHg 81%
11:00 +7°C° 0 mm 3 mps 741 mmHg 77%
12:00 +7°C° 0.2 mm 3 mps 741 mmHg 78%
13:00 +7°C° 0.2 mm 3 mps 742 mmHg 78%
14:00 +6°C° 0.2 mm 4 mps 742 mmHg 78%
15:00 +7°C° 0.1 mm 3 mps 742 mmHg 77%
16:00 +8°C° 0.1 mm 3 mps 742 mmHg 76%
17:00 +8°C° 0.1 mm 2 mps 743 mmHg 74%
18:00 +7°C° 0.1 mm 2 mps 743 mmHg 79%
19:00 +7°C° 0.1 mm 2 mps 744 mmHg 84%
20:00 +6°C° 0.1 mm 2 mps 744 mmHg 89%
21:00 +5°C° 0 mm 2 mps 744 mmHg 90%
22:00 +4°C° 0 mm 3 mps 744 mmHg 92%
23:00 +3°C° 0 mm 3 mps 744 mmHg 93%

Day after tomorrow, 22 April, Thursday

Time Temperature Precipitation Wind Pressure Humidity
00:00 +3°C° 0 mm 3 mps 745 mmHg 92%
01:00 +3°C° 0 mm 3 mps 745 mmHg 91%
02:00 +4°C° 0 mm 3 mps 745 mmHg 90%
03:00 +4°C° 0 mm 3 mps 745 mmHg 90%
04:00 +4°C° 0 mm 3 mps 745 mmHg 90%
05:00 +4°C° 0 mm 3 mps 745 mmHg 90%
06:00 +5°C° 0 mm 4 mps 745 mmHg 87%
07:00 +7°C° 0 mm 4 mps 745 mmHg 83%
08:00 +8°C° 0 mm 5 mps 746 mmHg 80%
09:00 +9°C° 0.2 mm 5 mps 746 mmHg 78%
10:00 +9°C° 0.2 mm 5 mps 746 mmHg 77%
11:00 +10°C° 0.2 mm 5 mps 746 mmHg 76%
12:00 +11°C° 0.4 mm 6 mps 746 mmHg 70%
13:00 +12°C° 0.4 mm 7 mps 746 mmHg 64%
14:00 +15°C° 0.4 mm 7 mps 745 mmHg 58%
15:00 +14°C° 0.4 mm 6 mps 745 mmHg 60%
16:00 +14°C° 0.4 mm 6 mps 745 mmHg 63%
17:00 +14°C° 0.4 mm 5 mps 746 mmHg 65%
18:00 +12°C° 0.1 mm 4 mps 746 mmHg 71%
19:00 +11°C° 0.1 mm 4 mps 746 mmHg 77%
20:00 +9°C° 0.1 mm 3 mps 746 mmHg 82%
21:00 +9°C° 0.1 mm 3 mps 746 mmHg 84%
22:00 +8°C° 0.1 mm 4 mps 746 mmHg 85%
23:00 +8°C° 0.1 mm 4 mps 746 mmHg 87%

23 April, Friday

Time Temperature Precipitation Wind Pressure Humidity
00:00 +7°C° 0.2 mm 4 mps 745 mmHg 87%
01:00 +7°C° 0.2 mm 4 mps 745 mmHg 88%
02:00 +7°C° 0.2 mm 5 mps 745 mmHg 88%
03:00 +7°C° 0.1 mm 4 mps 745 mmHg 89%
04:00 +6°C° 0.1 mm 4 mps 745 mmHg 90%
05:00 +6°C° 0.1 mm 4 mps 745 mmHg 91%
06:00 +8°C° 0 mm 5 mps 745 mmHg 86%
07:00 +9°C° 0 mm 5 mps 745 mmHg 81%
08:00 +10°C° 0 mm 6 mps 745 mmHg 76%
09:00 +11°C° 0.1 mm 6 mps 745 mmHg 74%
10:00 +13°C° 0.1 mm 6 mps 745 mmHg 72%
11:00 +13°C° 0.1 mm 6 mps 744 mmHg 70%
12:00 +11°C° 0.7 mm 6 mps 744 mmHg 75%
13:00 +9°C° 0.7 mm 6 mps 744 mmHg 81%
14:00 +7°C° 0.7 mm 6 mps 744 mmHg 86%
15:00 +5°C° 0.2 mm 6 mps 745 mmHg 88%
16:00 +5°C° 0.2 mm 5 mps 745 mmHg 90%
17:00 +4°C° 0.2 mm 4 mps 745 mmHg 91%
18:00 +4°C° 0 mm 4 mps 745 mmHg 91%
19:00 +4°C° 0 mm 3 mps 745 mmHg 90%
20:00 +5°C° 0 mm 2 mps 745 mmHg 89%
21:00 +4°C° 0 mm 2 mps 745 mmHg 90%
22:00 +4°C° 0 mm 2 mps 745 mmHg 91%
23:00 +3°C° 0 mm 3 mps 745 mmHg 92%

24 April, Saturday

Time Temperature Precipitation Wind Pressure Humidity
00:00 +3°C° 0 mm 2 mps 745 mmHg 93%
01:00 +3°C° 0 mm 2 mps 745 mmHg 93%
02:00 +2°C° 0 mm 2 mps 745 mmHg 94%
03:00 +2°C° 0 mm 2 mps 745 mmHg 94%
04:00 +2°C° 0 mm 2 mps 745 mmHg 93%
05:00 +2°C° 0 mm 2 mps 745 mmHg 93%
06:00 +3°C° 0 mm 2 mps 745 mmHg 84%
07:00 +4°C° 0 mm 3 mps 745 mmHg 75%
08:00 +5°C° 0 mm 3 mps 745 mmHg 66%
09:00 +7°C° 0 mm 3 mps 745 mmHg 58%
10:00 +8°C° 0 mm 3 mps 745 mmHg 51%
11:00 +10°C° 0 mm 3 mps 745 mmHg 44%
12:00 +10°C° 0 mm 4 mps 745 mmHg 44%
13:00 +10°C° 0 mm 4 mps 745 mmHg 44%
14:00 +9°C° 0 mm 5 mps 744 mmHg 44%
15:00 +8°C° 0.2 mm 5 mps 745 mmHg 53%
16:00 +7°C° 0.2 mm 5 mps 745 mmHg 63%
17:00 +5°C° 0.2 mm 6 mps 745 mmHg 72%
18:00 +5°C° 0.2 mm 4 mps 745 mmHg 75%
19:00 +4°C° 0.2 mm 3 mps 745 mmHg 78%
20:00 +4°C° 0.2 mm 2 mps 746 mmHg 81%
21:00 +2°C° 0 mm 3 mps 746 mmHg 83%
22:00 +2°C° 0 mm 3 mps 746 mmHg 84%
23:00 +1°C° 0 mm 3 mps 746 mmHg 85%

25 April, Sunday

Time Temperature Precipitation Wind Pressure Humidity
00:00 +1°C° 0 mm 3 mps 746 mmHg 86%
01:00 0°C° 0 mm 3 mps 746 mmHg 88%
02:00 0°C° 0 mm 3 mps 746 mmHg 89%
03:00 0°C° 0 mm 3 mps 746 mmHg 89%
04:00 -1°C° 0 mm 3 mps 746 mmHg 89%
05:00 -1°C° 0 mm 3 mps 746 mmHg 90%
06:00 +1°C° 0 mm 3 mps 746 mmHg 82%
07:00 +3°C° 0 mm 4 mps 746 mmHg 74%
08:00 +5°C° 0 mm 4 mps 746 mmHg 67%
09:00 +3°C° 0.3 mm 5 mps 745 mmHg 72%
10:00 +3°C° 0.3 mm 6 mps 745 mmHg 77%
11:00 +3°C° 0.3 mm 7 mps 745 mmHg 82%
12:00 +4°C° 0.2 mm 7 mps 745 mmHg 76%
13:00 +5°C° 0.2 mm 7 mps 745 mmHg 69%
14:00 +5°C° 0.2 mm 7 mps 745 mmHg 63%
15:00 +5°C° 0.1 mm 6 mps 745 mmHg 63%
16:00 +5°C° 0.1 mm 6 mps 745 mmHg 63%
17:00 +6°C° 0.1 mm 5 mps 745 mmHg 62%
18:00 +4°C° 0 mm 4 mps 745 mmHg 67%
19:00 +3°C° 0 mm 3 mps 745 mmHg 72%
20:00 +4°C° 0 mm 1 mps 746 mmHg 77%
21:00 +3°C° 0 mm 1 mps 745 mmHg 77%
22:00 +3°C° 0 mm 1 mps 745 mmHg 77%
23:00 +3°C° 0 mm 1 mps 745 mmHg 77%
Show more